Погода Закаталы

Погода Закаталы : погода сейчас, прогноз погоды и архив. Всё, что Вы хотите узнать о погоде Закаталы!

Поиск расширенной информации на нашем сайте:

Другие новости

Новости СМИ2

Главная страница сайта

Новости сайта

02.10.2013

Напоминаем, что на нашем новом сайте вы можете получить высокодетализированные прогнозы погоды по пунктам России, СНГ и мира (включающие важные для авиации метеовеличины, такие как направление и скорость ветра, видимость, явления погоды, количество и форма облачности, нижняя и верхняя граница облачности), а также ознакомиться с разнообразными материалами по авиационной метеорологии и подборкой полезных ссылок на эту тему.

Сайт Метеоцентр.Азия посвящён разработке технологий оптимизации авиаметеорологического обслуживания, включая проектирование и перспективное создание нескольких автоматизированных авиаметеорологических систем:
- система выпуска высокодетальных прогностических карт явлений погоды для нижнего воздушного пространства по России и ближнему зарубежью;
- система верификации прогнозов TAF (выпускаемых синоптиками официальных АМСГ РФ и ближнего зарубежья) и AUTOTAF (выпускаемых сайтом Метеоцентр.Азия) - выявление ошибок, онлайн-сопоставление с фактической погодой METAR, автоматическое внесение коррективов в прогнозы при резком отклонении фактической погоды от прогноза, подсчёт оправдываемости прогнозов по элементам и в целом;
- система обработки, анализа и отображения авиаметеорологической информации для применения провайдерами метеорологической информации.


Погода Закаталы - сегодня

Время (UTC), дата Ветер
(°,м/с) 
Видим.   Явления Облачность Т
(°С)
Тd
(°С)
f(%) Тe
(°С)
Pmin
(гПа)
dP
(гПа)
Po
(мм)
O2
(г/м3)
Тmin Tmax R s Состояние
почвы
06 21.01.17 360 (С) 20000 м    8/8 1000 м средняя 
[Sc|Ac und]
+1.9 -5 60 +1  1029.9  0.3  727  291           
09 21.01.17 230 (ЮЗ) 10 км    6/6 1000 м средняя 
[Sc|Ac und]
+4.6 -2.1 62 +4  1028.8  0.5  727  288           
12 21.01.17 180 (Ю) 20000 м    4/0 средняя 
[Ac und]
+6.4 -2 55 +6  1026.4  -1.8  725  286           
15 21.01.17 360 (С) 20000 м    ясно 
+3.5 +1.2 85 +3  1027.1  725  288           
21 21.01.17 360 (С) 20000 м    ясно 
+0.8 -4.9 66 1028.8  726  292           
00 22.01.17 050 (СВ) 20000 м    ясно 
-0.3 -4.8 72 -1  1028.4  -0.7  726  293           
03 22.01.17 020 (С) 20000 м    ясно 
-1.9 -5.2 78 -3  1027.5  -1.1  725  295           
09 22.01.17 200 (Ю) 20000 м    1/1 1000 м 
[Cu med, cong]
+4.7 -6.1 45 +4  1026.5  0.4  725  288           
12 22.01.17 360 (С) 20000 м    5/5 1000 м средняя 
[Sc|Ac und]
+6.1 -6 42 +6  1025.4  -0.7  725  286           
15 22.01.17 090 (В) 20000 м    6/6 1000 м средняя 
[Sc|Ac und]
+4.2 -4.8 52 +4  1027.1  1.2  725  288           
21 22.01.17 180 (Ю) 4000 м    9/9 1000 м 
[Sc]
+2.7 -4.2 60 +2  1034.5  2.6  731  292           
00 23.01.17 160 (Ю) 4000 м    10/10 600 м 
[Sc]
+1.5 -3.6 69 +1  1035.7  0.9  731  293           
03 23.01.17 160 (Ю) 4000 м    10/10 600 м 
[Sc]
+0.3 -1.1 90 1036.6  0.6  732  295           
06 23.01.17 270 (З) 4000 м    10/10 600 м 
[Sc]
+0.5 -3.1 77 1037.4  0.8  732  295           
09 23.01.17 340 (С) 10 км    8/8 1000 м средняя 
[Sc|Ac und]
+2.6 -4.4 60 +2  1036.5  -0.4  732  293           
12 23.01.17 270 (З) 20000 м    3/3 1500 м 
[Cu med, cong]
+5.1 -1.1 64 +5  1033.7  -2.2  730  289           
15 23.01.17 360 (С) 20000 м    ясно 
+2.6 -3 67 +2  1034.2  730  292           
18 23.01.17 090 (В) 20000 м    ясно 
+1.3 -3.9 68 +1  1035.2  0.6  731  293    +5.6       
21 23.01.17 050 (СВ) 20000 м    ясно 
-0.1 -1.9 88 -1  1037  1.3  718  290           
00 24.01.17 070 (В) 20000 м    ясно 
-0.7 -2.5 88 -2  1036.9  732  296           
03 24.01.17 360 (С) 20000 м    ясно 
-0.8 -2.9 86 -2  1037  732  296           
06 24.01.17 050 (СВ) 20000 м    ясно 
+0.7 -6.2 60 1016.9  1.4  718  289           
09 24.01.17 230 (ЮЗ) 20000 м    ясно 
+4.7 -3.7 54 +4  1036.8  -0.4  732  291           
12 24.01.17 270 (З) 20000 м    ясно 
+7.5 -5.4 39 +7  1033.3  -2.7  730  287           
15 24.01.17 360 (С) 20000 м    ясно 
+3.2 -3.2 63 +3  1032.4  -1.8  729  291           
Время (UTC), дата Ветер
(°,м/с) 
Видим.   Явления Облачность Т
(°С)
Тd
(°С)
f(%) Тe
(°С)
Pmin
(гПа)
dP
(гПа)
Po
(мм)
O2
(г/м3)
Тmin Tmax R s Состояние
почвы

Для получения пояснительной информации подведите курсор к названию столбца.

ПОГОДА Закаталы - архив

Всё, что Вы хотите узнать о погоде Закаталы - удобно и подробно!

Выберите нужную дату (начиная с 1 января 2015* года) и нажмите кнопку "Найти".
Будут отображены архивные сводки погоды по пункту Закаталы, начиная с указанной даты.


Отображать данные в формате CSV (для использования в таблицах Excel)


Внимание! Наш архив погоды предназначен исключительно для личного некоммерческого использования в познавательных целях. Если Вам необходимы официальные справки о состоянии погоды (для производственных, юридических, коммерческих и т.п. целей), обращайтесь в органы Росгидромета.

*Примечание: данная дата относится к архиву по метеостанциям СССР (Россия, СНГ, Балтия).
Архив по метеостанциям Зарубежной Европы и Азии (кроме Китая) хранится 10 дней, по другим регионам земного шара (Китай, Африка, Америка, Австралия, Океания) - 1 день.

Закаталы - район местоположения метеостанции


Название, широта, долгота, высота метеостанции:
Закаталы 41.6°ш. 46.6°д. 490 м над ур. моря [Азербайджан]

Дополнительная информация

В oтличие oт бoльшинства пoгoдных сайтoв мы публикуем пoдрoбную метеoинфoрмацию в детальнoм прoфессиoнальнoм фoрмате.

Характеристики температуры и влажнoсти вoздуха измеряются на высoте 2 м в тени вдали oт зданий и деревьев.
Скoрoсть ветра измеряется на высoте 10 м (на урoвне рoста челoвека скoрoсть ветра ниже в 1.5-2 раза). Если метеoстанция нахoдится в гoрoде или в лесу, тo скoрoсть ветра занижена на 2-4 м/с пo сравнению с oткрытым местoм. Скoрoсть ветра над акватoриями крупных рек и oзёр, а также на вершинах хoлмoв на 2-5 м/с выше, чем в oбычных услoвиях.
Атмoсфернoе давление в разных тoчках местнoсти мoжет значительнo oтличаться oт давления на метеoстанции, в зависимoсти oт услoвий рельефа (при пoдъёме на 10 м давление пoнижается примернo на 1 мм рт.ст.).